Retour au catalogue

CZ-6A DEB

ActifPO
NORAD 61362·DEBRIS·🇨🇳 China

Lancé Aug 6, 2024 depuis Taiyuan Satellite Launch Center

Loading…

Prochains Passages (prochaines 24 heures)

TLE

FraisSource: Space-Track

Époque: Sep 13, 2026, 01:25 UTC

1 61362U 24140WB  26256.05945388  .00000421  00000-0  21018-3 0  9994
2 61362  89.1123 276.1193 0071989 281.5100  77.8010 14.13893668104461

Suivez CZ-6A DEB en temps réel avec AllMySat

Download on the App Store